When you browse on this site, cookies collect data to enhance your experience and personalize the content and advertising you see.
Visit our Privacy Policy to learn more. By continuing to use the site, you agree to this use of cookies and data.
  • Em Portugal
  • Lista de países
  • Para 7 dias
  • Temperatura da água
  • Mapas de satélite
  • Mapa do tempo
  • Widgets de tempo
  • user-avatar
    Iniciar Sessão

    Previsão horária em Zamek

    Hoje, 19 Fevereiro, Terça-feira

    Tempo Temperatura Precipitação Vento Pressão Humidade
    00:00 +1°C° 0 mm 4 m/s 754 mmHg 86%
    01:00 +2°C° 0 mm 3 m/s 754 mmHg 85%
    02:00 +2°C° 0 mm 3 m/s 753 mmHg 84%
    03:00 +2°C° 0 mm 3 m/s 753 mmHg 84%
    04:00 0°C° 0 mm 4 m/s 752 mmHg 83%
    05:00 0°C° 0 mm 4 m/s 752 mmHg 83%
    06:00 0°C° 0 mm 4 m/s 751 mmHg 83%
    07:00 0°C° 0 mm 4 m/s 751 mmHg 83%
    08:00 +1°C° 0 mm 5 m/s 750 mmHg 79%
    09:00 +2°C° 0 mm 5 m/s 750 mmHg 74%
    10:00 +4°C° 0 mm 6 m/s 750 mmHg 70%
    11:00 +5°C° 0 mm 6 m/s 750 mmHg 68%
    12:00 +7°C° 0 mm 6 m/s 749 mmHg 66%
    13:00 +8°C° 0 mm 6 m/s 749 mmHg 64%
    14:00 +8°C° 0 mm 6 m/s 749 mmHg 68%
    15:00 +7°C° 0 mm 5 m/s 749 mmHg 72%
    16:00 +7°C° 0 mm 5 m/s 749 mmHg 76%
    17:00 +6°C° 0.2 mm 4 m/s 749 mmHg 79%
    18:00 +6°C° 0.2 mm 4 m/s 749 mmHg 82%
    19:00 +5°C° 0.2 mm 4 m/s 749 mmHg 85%
    20:00 +5°C° 0.1 mm 4 m/s 749 mmHg 84%
    21:00 +5°C° 0.1 mm 4 m/s 749 mmHg 82%
    22:00 +5°C° 0.1 mm 5 m/s 749 mmHg 81%
    23:00 +3°C° 0 mm 5 m/s 749 mmHg 82%

    Amanhã, 20 Fevereiro, Quarta-feira

    Tempo Temperatura Precipitação Vento Pressão Humidade
    00:00 +3°C° 0 mm 5 m/s 749 mmHg 83%
    01:00 +3°C° 0 mm 6 m/s 749 mmHg 84%
    02:00 +3°C° 0.1 mm 6 m/s 749 mmHg 83%
    03:00 +3°C° 0.1 mm 6 m/s 749 mmHg 82%
    04:00 +3°C° 0.1 mm 6 m/s 749 mmHg 81%
    05:00 +2°C° 0.1 mm 6 m/s 749 mmHg 80%
    06:00 +2°C° 0.1 mm 6 m/s 750 mmHg 80%
    07:00 +2°C° 0.1 mm 6 m/s 750 mmHg 79%
    08:00 +3°C° 0 mm 6 m/s 750 mmHg 77%
    09:00 +3°C° 0 mm 7 m/s 751 mmHg 74%
    10:00 +3°C° 0 mm 7 m/s 751 mmHg 71%
    11:00 +3°C° 0 mm 7 m/s 752 mmHg 70%
    12:00 +4°C° 0 mm 7 m/s 752 mmHg 69%
    13:00 +4°C° 0 mm 7 m/s 752 mmHg 69%
    14:00 +4°C° 0 mm 7 m/s 753 mmHg 70%
    15:00 +3°C° 0 mm 7 m/s 753 mmHg 71%
    16:00 +3°C° 0 mm 6 m/s 754 mmHg 72%
    17:00 +3°C° 0 mm 5 m/s 754 mmHg 74%
    18:00 +3°C° 0 mm 5 m/s 754 mmHg 76%
    19:00 +3°C° 0 mm 4 m/s 755 mmHg 78%
    20:00 +3°C° 0 mm 4 m/s 755 mmHg 82%
    21:00 +1°C° 0 mm 4 m/s 755 mmHg 86%
    22:00 +2°C° 0 mm 3 m/s 756 mmHg 90%
    23:00 +1°C° 0 mm 3 m/s 756 mmHg 92%

    Depois de amanhã, 21 Fevereiro, Quinta-feira

    Tempo Temperatura Precipitação Vento Pressão Humidade
    00:00 +1°C° 0 mm 3 m/s 756 mmHg 93%
    01:00 +2°C° 0 mm 2 m/s 756 mmHg 95%
    02:00 +2°C° 0.2 mm 2 m/s 756 mmHg 95%
    03:00 +2°C° 0.2 mm 2 m/s 755 mmHg 96%
    04:00 +2°C° 0.2 mm 2 m/s 755 mmHg 96%
    05:00 +3°C° 0.4 mm 2 m/s 755 mmHg 96%
    06:00 +3°C° 0.4 mm 2 m/s 755 mmHg 97%
    07:00 +3°C° 0.4 mm 2 m/s 755 mmHg 97%
    08:00 +3°C° 0.4 mm 3 m/s 755 mmHg 96%
    09:00 +3°C° 0.4 mm 3 m/s 755 mmHg 95%
    10:00 +4°C° 0.4 mm 3 m/s 755 mmHg 94%
    11:00 +4°C° 0.4 mm 3 m/s 755 mmHg 94%
    12:00 +4°C° 0.4 mm 3 m/s 755 mmHg 93%
    13:00 +5°C° 0.4 mm 3 m/s 755 mmHg 93%
    14:00 +5°C° 0.6 mm 2 m/s 755 mmHg 94%
    15:00 +5°C° 0.6 mm 2 m/s 754 mmHg 95%
    16:00 +5°C° 0.6 mm 2 m/s 754 mmHg 96%
    17:00 +5°C° 0.4 mm 2 m/s 755 mmHg 95%
    18:00 +3°C° 0.4 mm 3 m/s 755 mmHg 94%
    19:00 +2°C° 0.4 mm 3 m/s 756 mmHg 94%
    20:00 0°C° 0.2 mm 4 m/s 756 mmHg 92%
    21:00 -1°C° 0.2 mm 4 m/s 757 mmHg 90%
    22:00 -1°C° 0.2 mm 5 m/s 757 mmHg 88%
    23:00 -2°C° 0.2 mm 5 m/s 758 mmHg 87%

    22 Fevereiro, Sexta-feira

    Tempo Temperatura Precipitação Vento Pressão Humidade
    00:00 -4°C° 0.2 mm 5 m/s 759 mmHg 86%
    01:00 -3°C° 0.2 mm 4 m/s 760 mmHg 85%
    02:00 -4°C° 0 mm 4 m/s 761 mmHg 82%
    03:00 -4°C° 0 mm 4 m/s 762 mmHg 79%
    04:00 -4°C° 0 mm 4 m/s 763 mmHg 76%
    05:00 -5°C° 0 mm 4 m/s 764 mmHg 74%
    06:00 -5°C° 0 mm 4 m/s 765 mmHg 73%
    07:00 -5°C° 0 mm 4 m/s 766 mmHg 71%
    08:00 -5°C° 0 mm 4 m/s 767 mmHg 66%
    09:00 -5°C° 0 mm 5 m/s 768 mmHg 60%
    10:00 -5°C° 0 mm 5 m/s 769 mmHg 55%
    11:00 -4°C° 0 mm 4 m/s 769 mmHg 53%
    12:00 -3°C° 0 mm 4 m/s 770 mmHg 50%
    13:00 -3°C° 0 mm 4 m/s 770 mmHg 48%
    14:00 -2°C° 0 mm 3 m/s 771 mmHg 48%
    15:00 -2°C° 0 mm 3 m/s 771 mmHg 49%
    16:00 -2°C° 0 mm 3 m/s 772 mmHg 49%
    17:00 -3°C° 0 mm 2 m/s 772 mmHg 52%
    18:00 -3°C° 0 mm 2 m/s 773 mmHg 56%
    19:00 -4°C° 0 mm 2 m/s 773 mmHg 59%
    20:00 -2°C° 0 mm 1 m/s 773 mmHg 59%
    21:00 -2°C° 0 mm 1 m/s 773 mmHg 58%
    22:00 -2°C° 0 mm 1 m/s 773 mmHg 57%
    23:00 -2°C° 0 mm 1 m/s 773 mmHg 56%

    23 Fevereiro, Sábado

    Tempo Temperatura Precipitação Vento Pressão Humidade
    00:00 -2°C° 0 mm 1 m/s 773 mmHg 55%
    01:00 -2°C° 0 mm 1 m/s 773 mmHg 54%
    02:00 -2°C° 0 mm 1 m/s 773 mmHg 54%
    03:00 -2°C° 0 mm 1 m/s 773 mmHg 54%
    04:00 -4°C° 0 mm 2 m/s 772 mmHg 53%
    05:00 -4°C° 0 mm 2 m/s 772 mmHg 52%
    06:00 -3°C° 0 mm 2 m/s 772 mmHg 51%
    07:00 -4°C° 0 mm 3 m/s 772 mmHg 49%
    08:00 -2°C° 0 mm 3 m/s 772 mmHg 49%
    09:00 -2°C° 0 mm 3 m/s 772 mmHg 49%
    10:00 -2°C° 0 mm 3 m/s 771 mmHg 49%
    11:00 -1°C° 0 mm 3 m/s 771 mmHg 48%
    12:00 0°C° 0 mm 3 m/s 771 mmHg 47%
    13:00 0°C° 0 mm 3 m/s 770 mmHg 46%
    14:00 +1°C° 0 mm 3 m/s 770 mmHg 50%
    15:00 +1°C° 0 mm 3 m/s 769 mmHg 53%
    16:00 +1°C° 0 mm 3 m/s 769 mmHg 57%
    17:00 +1°C° 0 mm 2 m/s 769 mmHg 64%
    18:00 +1°C° 0 mm 2 m/s 768 mmHg 72%
    19:00 +1°C° 0 mm 2 m/s 768 mmHg 79%
    20:00 +1°C° 0 mm 2 m/s 768 mmHg 84%
    21:00 +1°C° 0 mm 2 m/s 768 mmHg 89%
    22:00 +1°C° 0 mm 2 m/s 768 mmHg 94%
    23:00 +1°C° 0 mm 2 m/s 768 mmHg 95%

    24 Fevereiro, Domingo

    Tempo Temperatura Precipitação Vento Pressão Humidade
    00:00 +1°C° 0 mm 2 m/s 768 mmHg 96%
    01:00 +2°C° 0 mm 1 m/s 768 mmHg 97%
    02:00 +2°C° 0 mm 1 m/s 768 mmHg 97%
    03:00 +2°C° 0 mm 1 m/s 768 mmHg 97%
    04:00 +1°C° 0 mm 2 m/s 769 mmHg 97%
    05:00 +2°C° 0 mm 1 m/s 769 mmHg 97%
    06:00 +2°C° 0 mm 1 m/s 769 mmHg 97%
    07:00 +2°C° 0 mm 1 m/s 769 mmHg 97%
    08:00 +2°C° 0 mm 1 m/s 769 mmHg 96%
    09:00 +3°C° 0 mm 1 m/s 769 mmHg 95%
    10:00 +3°C° 0 mm 1 m/s 769 mmHg 95%
    11:00 +3°C° 0 mm 2 m/s 769 mmHg 91%
    12:00 +4°C° 0 mm 2 m/s 769 mmHg 88%
    13:00 +5°C° 0 mm 2 m/s 769 mmHg 85%
    14:00 +5°C° 0 mm 2 m/s 768 mmHg 87%
    15:00 +4°C° 0 mm 2 m/s 768 mmHg 90%
    16:00 +4°C° 0 mm 2 m/s 768 mmHg 92%
    17:00 +4°C° 0 mm 2 m/s 767 mmHg 93%
    18:00 +2°C° 0 mm 3 m/s 767 mmHg 94%
    19:00 +1°C° 0 mm 3 m/s 767 mmHg 95%
    20:00 +2°C° 0 mm 3 m/s 766 mmHg 96%
    21:00 +2°C° 0 mm 3 m/s 766 mmHg 96%
    22:00 +2°C° 0 mm 3 m/s 765 mmHg 96%
    23:00 +2°C° 0 mm 3 m/s 765 mmHg 96%
    Mostrar mais